Meteo Giornale » Osservazioni meteo Stati Uniti (USA) » San Francisco
ore: 03:56 - Osservazioni Meteo San Francisco
Lat. 37° 37' N Lon. 122° 21' W Alt. 3 metri s.l.m.
17 °C
Molto Nuvoloso
Temp. 24 Ore
14 °C
19 °C
Sud-Ovest
14.8 Km/h
Dew point 11 °C
Umidità 67 %
Visibilità 10 Km
Il sole sorge alle ore 06:39
Il sole tramonta alle ore 19:38
| Data e Ora | Cielo e Fenomeni | T °C | DP °C | Um. % | Pres. hPa | Vis. km | Vento km/h | |
|---|---|---|---|---|---|---|---|---|
| Oggi h: 03:56 | Molto Nuvoloso | 17 | 11 | 67 | 1014 | 10 | SO 14.8 | |
| Oggi h: 02:56 | Molto Nuvoloso | 17 | 11 | 67 | 1014 | 10 | S/SO 14.8 | |
| Oggi h: 01:56 | Molto Nuvoloso | 17 | 11 | 67 | 1014 | 10 | SO 13 | |
| Oggi h: 00:56 | Molto Nuvoloso | 17 | 11 | 67 | 1014 | 10 | SO 14.8 | |
| Ieri h: 23:56 | Molto Nuvoloso | 17 | 12 | 72 | 1014 | 10 | O 18.5 | |
| Ieri h: 22:56 | Molto Nuvoloso | 17 | 11 | 67 | 1014 | 10 | O 13 | |
| Ieri h: 22:39 | Molto Nuvoloso | 17 | 11 | 67 | 1014 | 10 | O 14.8 | |
| Ieri h: 21:56 | Molto Nuvoloso | 17 | 11 | 67 | 1014 | 10 | O 20.3 | |
| Ieri h: 20:56 | Molto Nuvoloso | 17 | 11 | 67 | 1014 | 10 | O 16.7 | |
| Ieri h: 19:56 | Molto Nuvoloso | 17 | 11 | 67 | 1013 | 10 | O/SO 20.3 | |
| Ieri h: 18:56 | Molto Nuvoloso | 17 | 11 | 67 | 1013 | 10 | O 20.3 | |
| Ieri h: 17:56 | Molto Nuvoloso | 18 | 11 | 63 | 1013 | 10 | O 24 | |
| Ieri h: 16:56 | Molto Nuvoloso | 19 | 11 | 59 | 1013 | 10 | O 27.8 | |
| Ieri h: 15:56 | Molto Nuvoloso | 19 | 12 | 63 | 1014 | 10 | O 25.9 | |
| Ieri h: 14:56 | Coperto | 19 | 11 | 59 | 1014 | 10 | O 27.8 | |
| Ieri h: 13:56 | Coperto | 18 | 12 | 67 | 1015 | 10 | O/NO 24 | |
| Ieri h: 12:56 | Coperto | 18 | 12 | 67 | 1015 | 10 | O 18.5 | |
| Ieri h: 11:56 | Coperto | 17 | 12 | 72 | 1015 | 10 | O 24 | |
| Ieri h: 10:56 | Coperto | 17 | 12 | 72 | 1015 | 10 | O/SO 11.1 | |
| Ieri h: 09:56 | Coperto | 16 | 12 | 77 | 1015 | 10 | O 16.7 | |
| Ieri h: 09:19 | Coperto | 16 | 12 | 77 | 1014 | 10 | O 14.8 | |
| Ieri h: 08:56 | Coperto | 16 | 12 | 77 | 1014 | 10 | O/SO 13 | |
| Ieri h: 07:56 | Coperto | 15 | 12 | 82 | 1014 | 10 | O/SO 11.1 | |
| Ieri h: 06:56 | Coperto | 15 | 12 | 82 | 1013 | 10 | O 16.7 | |
| Ieri h: 05:56 | Coperto | 15 | 12 | 82 | 1013 | 10 | O 22.2 | |
| Ieri h: 05:38 | Molto Nuvoloso | 15 | 12 | 82 | 1013 | 10 | O/SO 14.8 | |
| Ieri h: 04:56 | Molto Nuvoloso | 14 | 12 | 87 | 1012 | 10 | O 22.2 | |



